Location: Unspecified
(0.0000°N, 0.0000°E)
Time: 08:41:51
(UTC+00:00)

Envisat - Pass Details

Date: 18 September 2021
Orbit: 764 x 766 km, 98.2° (Epoch: 17 September)

Event Time Altitude Azimuth Distance (km) Brightness Sun altitude
Rises 05:09:25 0° 0° (N) 3,213 6.3 -11.2°
Reaches altitude 10° 05:11:48 10° 354° (N) 2,290 5.4 -10.6°
Maximum altitude 05:16:35 45° 282° (WNW) 1,035 3.3 -9.4°
Drops below altitude 10° 05:21:25 10° 210° (SSW) 2,301 5.2 -8.2°
Sets 05:23:49 0° 204° (SSW) 3,229 6.0 -7.6°
